{"data":{"norad_id":37265,"epoch":"2026-05-25T02:47:35.782368Z","epoch_age_seconds":75167,"freshness":"FRESH","line1":"1 37265U 10070B   26145.11638637 -.00000114  00000+0  00000+0 0  9999","line2":"2 37265   0.0167 290.9572 0002250 130.0584  23.4712  1.00270397 56530","mean_motion":1.00270397,"eccentricity":0.000225,"inclination_deg":0.0167,"raan_deg":290.9572,"arg_perigee_deg":130.0584,"mean_anomaly_deg":23.4712,"bstar":0,"rev_number":5653,"period_min":1436.1167833015,"perigee_km":35777.496920224,"apogee_km":35796.471224706,"semimajor_km":42165.121072465,"source":"CELESTRAK","updated_at":"2026-05-25T13:38:13.898652Z"}}